Tracking 19817 objects as of 17-Aug-2019
HD Live streaming from Space Station
objects crossing your sky now

FENGYUN 1C DEB

Track FENGYUN 1C DEB now!
10-day predictions


NORAD ID: 29897
Int'l Code: 1999-025GT
Perigee: 847.4 km
Apogee: 1,325.1 km
Inclination: 98.6 °
Period: 106.8 minutes
Semi major axis: 7457 km
RCS: 0.0153 m2 (small)
Launch date: May 10, 1999
Source: People's Republic of China (PRC)
Launch site: Taiyaun Space Center, China (TSC)

Note: This is SATELLITE DEBRIS
aabbcc
Your satellite tracking list
Your tracking list is empty




NASA's NSSDC Master Catalog

Two Line Element Set (TLE):
1 29897U 99025GT  19228.84901132  .00000485  00000-0  61736-3 0  9993
2 29897  98.6405 359.3608 0320298 328.4156 184.8217 13.48133249617582
Source of the keplerian elements: AFSPC